• In United States
  • List of Countries
  • For 7 days
  • Water Temperature
  • Satellite Maps
  • Weather Map
  • Weather Widgets
  • user-avatar
    Login

    Hourly Weather Encamp

    Today, 20 January, Saturday

    Time Temperature Precipitation Wind Pressure Humidity
    00:00 -5°C° 0 mm 3 mps 624 mmHg 76%
    01:00 -5°C° 0 mm 3 mps 623 mmHg 77%
    02:00 -5°C° 0 mm 3 mps 623 mmHg 77%
    03:00 -5°C° 0 mm 2 mps 623 mmHg 77%
    04:00 -5°C° 0 mm 2 mps 623 mmHg 76%
    05:00 -5°C° 0 mm 2 mps 623 mmHg 75%
    06:00 -4°C° 0 mm 2 mps 623 mmHg 73%
    07:00 -3°C° 0 mm 2 mps 623 mmHg 71%
    08:00 -2°C° 0 mm 2 mps 624 mmHg 69%
    09:00 +2°C° 0 mm 1 mps 624 mmHg 67%
    10:00 +2°C° 0 mm 2 mps 624 mmHg 66%
    11:00 +3°C° 0 mm 2 mps 624 mmHg 65%
    12:00 +4°C° 0 mm 3 mps 624 mmHg 64%
    13:00 +4°C° 0.2 mm 3 mps 624 mmHg 68%
    14:00 +4°C° 0.2 mm 3 mps 623 mmHg 72%
    15:00 +4°C° 0.2 mm 4 mps 623 mmHg 76%
    16:00 +3°C° 0.9 mm 4 mps 623 mmHg 80%
    17:00 +2°C° 0.9 mm 3 mps 622 mmHg 84%
    18:00 +1°C° 0.9 mm 3 mps 622 mmHg 89%
    19:00 +2°C° 0.4 mm 3 mps 622 mmHg 88%
    20:00 +2°C° 0.4 mm 3 mps 622 mmHg 88%
    21:00 +1°C° 0.4 mm 4 mps 623 mmHg 88%
    22:00 +2°C° 0.4 mm 3 mps 623 mmHg 89%
    23:00 +2°C° 0.4 mm 3 mps 623 mmHg 89%

    Tomorrow, 21 January, Sunday

    Time Temperature Precipitation Wind Pressure Humidity
    00:00 +2°C° 0.4 mm 3 mps 623 mmHg 90%
    01:00 +2°C° 0.4 mm 3 mps 623 mmHg 90%
    02:00 +2°C° 0.4 mm 3 mps 624 mmHg 91%
    03:00 +2°C° 0.4 mm 3 mps 624 mmHg 91%
    04:00 +2°C° 0.4 mm 3 mps 624 mmHg 91%
    05:00 +2°C° 0.4 mm 3 mps 624 mmHg 91%
    06:00 +2°C° 0.4 mm 3 mps 624 mmHg 90%
    07:00 +3°C° 0.4 mm 3 mps 625 mmHg 90%
    08:00 +3°C° 0.4 mm 3 mps 625 mmHg 89%
    09:00 +3°C° 0.4 mm 3 mps 626 mmHg 88%
    10:00 +4°C° 0.4 mm 3 mps 626 mmHg 87%
    11:00 +4°C° 0.4 mm 3 mps 626 mmHg 85%
    12:00 +5°C° 0.4 mm 3 mps 627 mmHg 84%
    13:00 +5°C° 0.6 mm 3 mps 627 mmHg 84%
    14:00 +5°C° 0.6 mm 3 mps 627 mmHg 84%
    15:00 +4°C° 0.6 mm 3 mps 627 mmHg 84%
    16:00 +4°C° 0.4 mm 3 mps 627 mmHg 86%
    17:00 +3°C° 0.4 mm 3 mps 627 mmHg 87%
    18:00 +3°C° 0.4 mm 3 mps 627 mmHg 88%
    19:00 +2°C° 0.2 mm 3 mps 627 mmHg 87%
    20:00 +2°C° 0.2 mm 3 mps 627 mmHg 86%
    21:00 +2°C° 0.2 mm 3 mps 627 mmHg 85%
    22:00 +2°C° 0 mm 3 mps 627 mmHg 84%
    23:00 +1°C° 0 mm 3 mps 627 mmHg 83%

    Day after tomorrow, 22 January, Monday

    Time Temperature Precipitation Wind Pressure Humidity
    00:00 +1°C° 0 mm 3 mps 627 mmHg 83%
    01:00 +1°C° 0 mm 3 mps 627 mmHg 81%
    02:00 +1°C° 0 mm 3 mps 627 mmHg 80%
    03:00 0°C° 0 mm 3 mps 627 mmHg 79%
    04:00 0°C° 0 mm 3 mps 627 mmHg 79%
    05:00 0°C° 0 mm 3 mps 627 mmHg 79%
    06:00 0°C° 0 mm 3 mps 627 mmHg 78%
    07:00 +1°C° 0 mm 3 mps 627 mmHg 76%
    08:00 +2°C° 0 mm 3 mps 628 mmHg 74%
    09:00 +3°C° 0 mm 3 mps 628 mmHg 72%
    10:00 +4°C° 0 mm 3 mps 629 mmHg 68%
    11:00 +5°C° 0 mm 3 mps 629 mmHg 65%
    12:00 +8°C° 0 mm 3 mps 629 mmHg 62%
    13:00 +8°C° 0 mm 3 mps 629 mmHg 63%
    14:00 +7°C° 0 mm 3 mps 629 mmHg 65%
    15:00 +7°C° 0 mm 3 mps 628 mmHg 67%
    16:00 +4°C° 0 mm 3 mps 628 mmHg 73%
    17:00 +2°C° 0 mm 3 mps 628 mmHg 78%
    18:00 +2°C° 0 mm 2 mps 627 mmHg 84%
    19:00 +1°C° 0 mm 3 mps 627 mmHg 81%
    20:00 0°C° 0 mm 3 mps 627 mmHg 77%
    21:00 0°C° 0 mm 3 mps 627 mmHg 74%
    22:00 0°C° 0 mm 3 mps 628 mmHg 73%
    23:00 +1°C° 0 mm 3 mps 628 mmHg 73%

    23 January, Tuesday

    Time Temperature Precipitation Wind Pressure Humidity
    00:00 +1°C° 0 mm 3 mps 628 mmHg 73%
    01:00 +1°C° 0 mm 3 mps 628 mmHg 76%
    02:00 +1°C° 0 mm 3 mps 628 mmHg 79%
    03:00 +1°C° 0 mm 3 mps 628 mmHg 82%
    04:00 +1°C° 0.1 mm 3 mps 628 mmHg 83%
    05:00 +2°C° 0.1 mm 3 mps 628 mmHg 85%
    06:00 +2°C° 0.1 mm 3 mps 628 mmHg 86%
    07:00 +3°C° 0 mm 2 mps 628 mmHg 85%
    08:00 +4°C° 0 mm 2 mps 629 mmHg 84%
    09:00 +4°C° 0 mm 2 mps 629 mmHg 83%
    10:00 +5°C° 0 mm 2 mps 630 mmHg 78%
    11:00 +7°C° 0 mm 2 mps 630 mmHg 74%
    12:00 +8°C° 0 mm 2 mps 631 mmHg 69%
    13:00 +8°C° 0 mm 2 mps 630 mmHg 70%
    14:00 +7°C° 0 mm 2 mps 630 mmHg 71%
    15:00 +7°C° 0 mm 2 mps 630 mmHg 72%
    16:00 +6°C° 0 mm 2 mps 630 mmHg 77%
    17:00 +5°C° 0 mm 1 mps 629 mmHg 83%
    18:00 +4°C° 0 mm 1 mps 629 mmHg 88%
    19:00 +4°C° 0 mm 1 mps 629 mmHg 87%
    20:00 +3°C° 0 mm 1 mps 629 mmHg 86%
    21:00 +3°C° 0 mm 1 mps 629 mmHg 84%
    22:00 +3°C° 0 mm 1 mps 629 mmHg 84%
    23:00 +3°C° 0 mm 1 mps 629 mmHg 83%

    24 January, Wednesday

    Time Temperature Precipitation Wind Pressure Humidity
    00:00 +3°C° 0 mm 1 mps 629 mmHg 82%
    01:00 +3°C° 0 mm 1 mps 629 mmHg 82%
    02:00 +3°C° 0 mm 1 mps 629 mmHg 83%
    03:00 +2°C° 0 mm 1 mps 628 mmHg 84%
    04:00 +2°C° 0 mm 1 mps 628 mmHg 84%
    05:00 +2°C° 0 mm 1 mps 628 mmHg 85%
    06:00 +2°C° 0 mm 1 mps 628 mmHg 86%
    07:00 +3°C° 0 mm 1 mps 629 mmHg 83%
    08:00 +4°C° 0 mm 1 mps 630 mmHg 81%
    09:00 +5°C° 0 mm 1 mps 630 mmHg 78%
    10:00 +7°C° 0 mm 1 mps 630 mmHg 73%
    11:00 +7°C° 0 mm 2 mps 631 mmHg 68%
    12:00 +8°C° 0 mm 2 mps 631 mmHg 63%
    13:00 +8°C° 0 mm 2 mps 631 mmHg 64%
    14:00 +8°C° 0 mm 2 mps 630 mmHg 65%
    15:00 +8°C° 0 mm 2 mps 630 mmHg 66%
    16:00 +6°C° 0 mm 2 mps 629 mmHg 72%
    17:00 +5°C° 0 mm 1 mps 628 mmHg 79%
    18:00 +3°C° 0 mm 1 mps 628 mmHg 85%
    19:00 +3°C° 0 mm 1 mps 628 mmHg 84%
    20:00 +3°C° 0 mm 1 mps 628 mmHg 82%
    21:00 +2°C° 0 mm 1 mps 628 mmHg 81%
    22:00 +2°C° 0 mm 1 mps 628 mmHg 79%
    23:00 +2°C° 0 mm 1 mps 627 mmHg 77%

    25 January, Thursday

    Time Temperature Precipitation Wind Pressure Humidity
    00:00 +2°C° 0 mm 1 mps 627 mmHg 75%
    01:00 +2°C° 0 mm 1 mps 627 mmHg 75%
    02:00 +2°C° 0 mm 1 mps 626 mmHg 75%
    03:00 +1°C° 0 mm 1 mps 626 mmHg 74%
    04:00 +1°C° 0 mm 1 mps 626 mmHg 75%
    05:00 +1°C° 0 mm 1 mps 625 mmHg 75%
    06:00 +1°C° 0 mm 1 mps 625 mmHg 75%
    07:00 +1°C° 0 mm 2 mps 626 mmHg 73%
    08:00 +2°C° 0 mm 2 mps 626 mmHg 70%
    09:00 +3°C° 0 mm 2 mps 626 mmHg 68%
    10:00 +4°C° 0 mm 2 mps 626 mmHg 64%
    11:00 +5°C° 0 mm 2 mps 626 mmHg 59%
    12:00 +7°C° 0 mm 2 mps 626 mmHg 55%
    13:00 +6°C° 0 mm 2 mps 626 mmHg 56%
    14:00 +6°C° 0 mm 2 mps 625 mmHg 56%
    15:00 +6°C° 0 mm 2 mps 625 mmHg 57%
    16:00 +4°C° 0 mm 2 mps 624 mmHg 65%
    17:00 +2°C° 0 mm 2 mps 623 mmHg 73%
    18:00 +2°C° 0 mm 1 mps 623 mmHg 81%
    19:00 +1°C° 0.2 mm 1 mps 623 mmHg 82%
    20:00 +1°C° 0.2 mm 1 mps 623 mmHg 84%
    21:00 +1°C° 0.2 mm 1 mps 623 mmHg 86%
    22:00 +1°C° 0.3 mm 1 mps 623 mmHg 86%
    23:00 +1°C° 0.3 mm 1 mps 623 mmHg 87%
    Show more